User: anonymous   Login
Location: Asheville, NC
(35.6000°N, 82.5500°W)
Time: 21:42:38
(UTC-05:00)
Language:

KKS-1 - Orbit

View from above orbital plane
View from above orbital plane
View from above satellite
View from above satellite

Ground track
Ground track

The orbit data is extracted from the following two-line orbital elements,

1 33499U 09002H   19049.84082436  .00000085  00000-0  20622-4 0  9996
2 33499  98.3546 244.6717 0008335 222.5219 137.5344 14.75407414541552
Epoch (UTC): 18 February 2019 20:10:47
Eccentricity: 0.0008335
inclination: 98.3546°
perigee height: 638 km
apogee height: 650 km
right ascension of ascending node: 244.6717°
argument of perigee: 222.5219°
revolutions per day: 14.75407414
mean anomaly at epoch: 137.5344°
orbit number at epoch: 54155

The dashed part of the orbit path shows where the satellite is in the earth's shadow,  

DLR